This is the latest recevied weather packets stored in our database for station/object KA1BMF-13. If no packets are shown the sender has not sent any weather packets the latest 10 day(s).
| Time | Temp. | Humidity | Pressure | Rain* | Wind** | Luminosity | Snow |
|---|---|---|---|---|---|---|---|
| 1788582619 | 18.33° C | 90% | 1010.3 hPa | 0 mm | - | 0 W/m² | - |
| 1788582019 | 18.33° C | 89% | 1010.3 hPa | 0 mm | - | 0 W/m² | - |
| 1788581416 | 18.33° C | 89% | 1010.3 hPa | 0 mm | - | 0 W/m² | - |
| 1788580819 | 18.33° C | 88% | 1010.3 hPa | 0 mm | - | 0 W/m² | - |
| 1788580225 | 18.89° C | 88% | 1010.2 hPa | 0 mm | - | 0 W/m² | - |
| 1788579617 | 18.89° C | 88% | 1010.2 hPa | 0 mm | - | 0 W/m² | - |
| 1788579017 | 18.89° C | 88% | 1010.2 hPa | 0 mm | - | 0 W/m² | - |
| 1788578417 | 19.44° C | 88% | 1010.2 hPa | 0 mm | - | 0 W/m² | - |
| 1788577820 | 19.44° C | 87% | 1010.2 hPa | 0 mm | - | 0 W/m² | - |
| 1788577217 | 19.44° C | 87% | 1010.1 hPa | 0 mm | - | 0 W/m² | - |
| 1788576618 | 19.44° C | 85% | 1010.1 hPa | 0 mm | - | 0 W/m² | - |
| 1788576017 | 19.44° C | 84% | 1010.1 hPa | 0 mm | - | 0 W/m² | - |
| 1788575418 | 19.44° C | 84% | 1010.2 hPa | 0 mm | - | 0 W/m² | - |
| 1788574818 | 19.44° C | 87% | 1010.2 hPa | 0 mm | - | 0 W/m² | - |
| 1788574218 | 19.44° C | 87% | 1010.1 hPa | 0 mm | - | 0 W/m² | - |
| 1788573618 | 19.44° C | 88% | 1010.3 hPa | 0 mm | - | 0 W/m² | - |
| 1788573018 | 19.44° C | 88% | 1010.3 hPa | 0 mm | - | 0 W/m² | - |
| 1788572416 | 19.44° C | 87% | 1010.2 hPa | 0 mm | - | 0 W/m² | - |
| 1788571817 | 20° C | 87% | 1010.3 hPa | 0 mm | - | 0 W/m² | - |
| 1788571219 | 20° C | 87% | 1010.3 hPa | 0 mm | - | 0 W/m² | - |
| 1788570635 | 20.56° C | 86% | 1010.2 hPa | 0 mm | - | 0 W/m² | - |
| 1788570019 | 20.56° C | 85% | 1010.3 hPa | 0 mm | - | 0 W/m² | - |
| 1788569417 | 20.56° C | 81% | 1010.4 hPa | 0 mm | - | 0 W/m² | - |
| 1788568853 | 20.56° C | 83% | 1010.4 hPa | 0 mm | - | 0 W/m² | - |
| 1788568217 | 20.56° C | 86% | 1010.3 hPa | 0 mm | - | 0 W/m² | - |
* Rain latest hour (hover to see other rain measurements)
** Current wind speed in m/s (hover to see current wind gust speed)